www.pogodaiklimat.ru

Погода и климат >> Архив погоды >> Боливия >> Puerto Suarez


ПОГОДА в Puerto Suarez

  • Прогноз погоды в Puerto Suarez
  • Монитор погоды в Puerto Suarez
  • Климат города

АРХИВ ПОГОДЫ в Puerto Suarez

Время (UTC), дата Ветер
(напр.,м/с)
 
Видим.   Явления Облачность Т
(С)
Тd
(С)
f
(%)
Тe
(С)
Тes
(С)
Комфортность P
(гПа)
Po
(гПа)
Тmin
(С)
Tmax
(С)
R
(мм)
S
(см)
12 16.03 штиль 0 30 км 8/0 2000 м
[Ac trans]
+27.2 +23.9 82 +37 +41 очень
душно
1010.3 995.0 +18.6
15 16.03 С 3 30 км 8/3 500 м
[Cu hum Ci]
+33.2 +27.8 73 +53 +62 опасность
перегрева
1010.0 994.6
18 16.03 З 4 15 км осадки на расстоянии {дождь} 9/9 500 м
[Cb cap Ac trans]
+26.5 +24.4 88 +37 +38 очень
душно
1006.6 991.5 4
21 16.03 штиль 0 8000 м гроза без осадков {дождь} туман 10/9 450 м
[Cb cap Ac und]
+23.5 +23.2 98 +31 +31 очень
душно
1008.5 993.5 +33.3
12 17.03 штиль 0 8000 м дымка 10/10 240 м
[Sc]
+20.7 +20.1 96 +25 +25 комфорт 1013.3 998.0 +16.4 52
15 17.03 Ю 2 30 км 10/10 240 м
[Sc]
+21.0 +19.5 91 +26 +26 душно 1014.0 998.6
18 17.03 Ю 3 30 км 10/10 300 м
[Sc]
+21.0 +19.5 91 +26 +26 душно 1013.1 997.8
21 17.03 Ю 2 30 км 10/10 360 м
[Sc]
+21.5 +20.0 91 +27 +27 душно 1011.4 996.0 +22.9
12 18.03 штиль 0 30 км 9/5 450 м
[Sc Ac trans]
+21.5 +19.0 86 +26 +28 душно 1013.8 998.4 +16.2
15 18.03 Ю 3 30 км 10/8 600 м
[Sc As op]
+24.0 +21.1 84 +30 +31 очень
душно
1014.4 999.0
18 18.03 Ю 3 30 км 10/9 600 м
[Sc As op]
+25.8 +20.6 73 +32 +32 очень
душно
1012.2 996.8
21 18.03 Ю 3 30 км 10/8 450 м
[Sc Ac trans]
+25.0 +21.4 80 +32 +32 очень
душно
1011.3 996.0 +27.3
12 19.03 штиль 0 30 км ясно +22.7 +19.4 82 +29 +36 очень
душно
1013.3 998.0 +15.8
15 19.03 Ю 3 30 км ясно +29.0 +22.0 66 +37 +54 опасность
солнечного
удара
1013.3 998.0
18 19.03 штиль 0 30 км 6/6 600 м
[Cu med, cong]
+31.0 +23.5 64 +42 +49 опасность
перегрева
1011.2 995.8
21 19.03 штиль 0 30 км 6/6 600 м
[Cu med, cong]
+30.7 +22.8 63 +41 +41 опасность
перегрева
1009.3 994.0 +32.0
12 20.03 штиль 0 30 км ясно +26.2 +23.4 85 +36 +43 очень
душно
1013.6 998.2 +16.8
15 20.03 штиль 0 30 км 5/5 500 м
[Cu hum]
+30.2 +24.6 72 +43 +55 опасность
перегрева
1013.4 998.0
18 20.03 штиль 0 30 км 5/5 500 м
[Cu med, cong]
+33.5 +25.7 64 +49 +58 опасность
перегрева
1011.0 995.6
21 20.03 штиль 0 30 км 4/4 600 м
[Cu med, cong]
+33.8 +25.3 61 +48 +49 опасность
перегрева
1008.6 993.4 +34.4
12 21.03 штиль 0 30 км 9/0 2000 м
[Ac trans]
+26.0 +24.0 89 +36 +39 очень
душно
1013.4 998.0 +18.1
15 21.03 В 3 30 км 9/3 500 м
[Cu hum Ac trans]
+28.6 +23.9 76 +40 +45 очень
душно
1014.0 998.6
18 21.03 штиль 0 30 км 8/3 600 м
[Cu hum Ci]
+32.4 +24.4 63 +45 +56 опасность
перегрева
1011.0 995.6
21 21.03 штиль 0 30 км осадки на расстоянии 8/6 600 м
[Cb cap Ci]
+31.4 +26.3 74 +47 +48 опасность
перегрева
1009.6 994.2 +32.9
12 22.03 штиль 0 30 км 10/10 450 м
[Sc]
+23.0 +22.3 96 +31 +31 очень
душно
1014.8 999.4 +17.3 1
15 22.03 штиль 0 30 км 9/6 450 м
[Sc Ac trans]
+29.0 +25.6 82 +43 +48 опасность
перегрева
1015.0 999.6
18 22.03 штиль 0 30 км 9/5 500 м
[Cu med, cong Ci]
+31.7 +25.3 69 +46 +54 опасность
перегрева
1011.8 996.4
21 22.03 штиль 0 30 км 8/3 600 м
[Cu hum Ci]
+32.6 +25.3 66 +47 +48 опасность
перегрева
1009.4 994.0 +33.0

 

Местоположение метеостанции Puerto Suarez (Боливия): широта -18.98 долгота -57.81 высота над уровнем моря 134 м.

В архиве по умолчанию представлена погода в Puerto Suarez за последнюю неделю. Архивные данные за месяц целиком и за предыдущие месяцы, начиная с января 2011 года, Вы можете получить, выбрав интересующий диапазон дат из раскрывающегося списка и нажав кнопку "Ввод!".

Внимание! Время в таблицах - всемирное. Для получения местного времени необходимо прибавить поправку, которая в Puerto Suarez равна -4 ч.

Смотрите также архив погоды в соседних городах и на ближайших метеорологических станциях:

Погода в Robore (Боливия) (219 км)
Погода в San Matias (Боливия) (301 км)
Погода в Caceres (Бразилия) (326 км)
Погода в San Jose De Chiquit (Боливия) (335 км)
Погода в Puerto Casado (Парагвай) (367 км)
Погода в Campo Grande (Бразилия) (369 км)
Погода в Cuiaba (Бразилия) (412 км)
Погода в San Ignacio De Vela (Боливия) (442 км)
Погода в Mariscal Estigar (Парагвай) (445 км)
Погода в Ponta Pora (Бразилия) (452 км)

Пояснения к столбцам:

Ветер - указаны скорость ветра в м/с - средняя за 10 мин, порывы в срок и между сроками (в фигурных скобках) и направление, откуда дует ветер: С - северный, СВ - северо-восточный, В - восточный, ЮВ - юго-восточный, Ю - южный, ЮЗ - юго-западный, З - западный, СЗ - северо-западный.
Видимость - горизонтальная дальность видимости в метрах или километрах. При видимости от 1 до 10 км при отсутствии осадков обычно наблюдается дымка, при ухудшении видимости до 1 км и менее - туман. В сухую погоду видимость может ухудшаться дымом, пылью или мглою.
Явления - указаны атмосферные явления, наблюдавшиеся в срок или в последний час перед сроком; фигурными скобками обозначены явления, наблюдавшиеся между сроками (за 1-3 часа до срока); квадратными скобками обозначены град или гололедные отложения с указанием их диаметра в мм.
Облачность - указаны через наклонную черту общая и нижняя облачность в баллах и высота нижней границы облаков в метрах; квадратными скобками обозначены формы облаков: Ci - перистые, Cs - перисто-слоистые, Cc - перисто-кучевые, Ac - высококучевые, As - высокослоистые, Sc - слоисто-кучевые, Ns - слоисто-дождевые, Cu - кучевые, Cb - кучево-дождевые. Подробнее классификацию облаков см. в Атласе облаков (PDF).
T - Температура воздуха - температура, измеренная на высоте 2 м над землей.
Td - Температура точки росы - температура, при понижении до которой содержащийся в воздухе водяной пар достигнет насыщения.
f - Относительная влажность воздуха - влажноcть воздуха, измеренная на высоте 2 м над землей.
Te - Эффективная температура - температура, которую ощущает одетый по сезону человек в тени. Характеристика душности погоды. При расчете учитывается влияние влажности воздуха и скорости ветра на теплоощущения человека.
Tes - Эффективная температура на солнце - температура, которую ощущает человек, с поправкой на солнечный нагрев. Характеристика знойности погоды. Зависит от высоты солнца над горизонтом, облачности и скорости ветра. Ночью, в пасмурную погоду, а также при ветре 12 м/с и более поправка равна нулю.
P - Атмосферное давление - приведенное к уровню моря атмосферное давление.
Po - Атмосферное давление - измеренное на уровне метеостанции атмосферное давление.
Tmin - Минимальная температура - минимум температуры воздуха на высоте 2 м над землей.
Tmax - Максимальная температура - максимум температуры воздуха на высоте 2 м над землей.
R - Количество осадков - Количество выпавших осадков, мм. При наведении курсора мыши на число - период времени, за который выпало указанное количество осадков.
S - Снежный покров - Высота снежного покрова, см. При наведении курсора мыши на число - состояние снежного покрова и степень покрытия местности в баллах.